This is the latest recevied weather packets stored in our database for station/object KA6UPU-1. If no packets are shown the sender has not sent any weather packets the latest 1 day(s).
| Time | Temp. | Humidity | Pressure | Rain* | Wind** | Luminosity | Snow |
|---|---|---|---|---|---|---|---|
| 1777980767 | 11.11° C | 93% | 1013.9 hPa | 0 mm | 0 m/s | - | - |
| 1777980467 | 11.11° C | 93% | 1013.8 hPa | 0 mm | 0 m/s | - | - |
| 1777980167 | 11.11° C | 93% | 1013.7 hPa | 0 mm | 0.89 m/s, 271° | - | - |
| 1777979867 | 11.11° C | 93% | 1013.6 hPa | 0 mm | 0 m/s | - | - |
| 1777979567 | 11.11° C | 93% | 1013.8 hPa | 0 mm | 0.89 m/s, 261° | - | - |
| 1777979267 | 11.11° C | 93% | 1014.1 hPa | 0 mm | 0.89 m/s, 269° | - | - |
| 1777978967 | 11.11° C | 93% | 1014.2 hPa | 0 mm | 0.45 m/s, 279° | - | - |
| 1777978667 | 11.11° C | 92% | 1014.3 hPa | 0 mm | 0 m/s | - | - |
| 1777978367 | 11.11° C | 93% | 1014.4 hPa | 0 mm | 0 m/s | - | - |
| 1777978067 | 11.11° C | 93% | 1014.2 hPa | 0 mm | 0.89 m/s, 256° | - | - |
| 1777977767 | 11.11° C | 93% | 1014.2 hPa | 0 mm | 0.89 m/s, 265° | - | - |
| 1777977466 | 11.11° C | 93% | 1014.1 hPa | 0 mm | 0.45 m/s, 304° | - | - |
| 1777977167 | 11.11° C | 93% | 1014 hPa | 0 mm | 0.45 m/s, 296° | - | - |
| 1777976867 | 11.11° C | 92% | 1014.1 hPa | 0 mm | 0.45 m/s, 293° | - | - |
| 1777976566 | 11.11° C | 92% | 1014.3 hPa | 0 mm | 0.45 m/s, 298° | - | - |
| 1777976266 | 11.11° C | 92% | 1014.3 hPa | 0 mm | 0 m/s | - | - |
| 1777975966 | 11.11° C | 92% | 1014.3 hPa | 0 mm | 0 m/s | - | - |
| 1777975667 | 11.11° C | 92% | 1014.3 hPa | 0 mm | 0.89 m/s, 276° | - | - |
| 1777975367 | 11.11° C | 92% | 1014.1 hPa | 0 mm | 0.45 m/s, 290° | - | - |
| 1777975066 | 11.11° C | 92% | 1014 hPa | 0 mm | 0.45 m/s, 288° | - | - |
| 1777974767 | 11.11° C | 92% | 1013.9 hPa | 0.25 mm | 0.89 m/s, 294° | - | - |
| 1777974466 | 11.11° C | 92% | 1014 hPa | 0.25 mm | 0.89 m/s, 286° | - | - |
| 1777974167 | 11.11° C | 92% | 1014.3 hPa | 0.25 mm | 0.89 m/s, 283° | - | - |
| 1777973866 | 11.11° C | 92% | 1014.2 hPa | 0.25 mm | 1.34 m/s, 305° | - | - |
| 1777973567 | 11.11° C | 92% | 1014.4 hPa | 0.25 mm | 0.45 m/s, 273° | - | - |
* Rain latest hour (hover to see other rain measurements)
** Current wind speed in m/s (hover to see current wind gust speed)